Tracking 35274 objects as of 11-Sep-2026
HD Live streaming from Space Station
objects crossing your sky now

GSAT 20

Track GSAT 20 now!


NORAD ID: 62028
Int'l Code: 2024-214A
Launch date: November 18, 2024
Source: India (IND)
Launch site: AIR FORCE EASTERN TEST RANGE (AFETR)
Your satellite tracking list
Your tracking list is empty




NASA's NSSDC Master Catalog

Two Line Element Set (TLE):
1 62028U 24214A   26253.99179064 -.00000038  00000-0  00000-0 0  9996
2 62028   0.0105 193.5020 0001472 176.7562  44.7680  1.00273368  6751
Source of the keplerian elements: AFSPC